Location: Hungerford
(51.4167°N, 1.5167°W)
Time: 09:32:16
(UTC+00:00)

Cosmos 1048 Rocket - Pass Details

Date: 21 January 2021
Orbit: 743 x 791 km, 74.0° (Epoch: 07 March)

Event Time Altitude Azimuth Distance (km) Brightness Sun altitude
Rises 19:34:36 0° 338° (NNW) 3,197 7.5 -27.2°
Reaches altitude 10° 19:37:05 10° 345° (NNW) 2,269 6.6 -27.6°
Enters shadow 19:39:13 23° 358° (N) 1,540 5.6 -27.9°
